RH
10 11 14 12 12 18 16 15 16 16 18 20 22 22 24 26 27 27 28 28 28 28 32 38 42 43 44 49 58 64 62 67 70 70 70 68 75 75 76 76 70 66 88 67
9 11 9 10 12 13 13 14 14 15 16 19 18 19 21 23 25 26 27 27 26 27 30 37 41 42 44 47 54 62 64 73 78 65 62 60 64 73 76 77 68 72 72 72
10 7 8 10 12 14 13 13 16 15 18 16 18 20 20 23 26 25 26 25 25 26 28 34 38 39 42 47 52 60 66 72 79 67 67 69 70 81 77 74 89 61 72 93
7 7 7 9 11 12 14 11 12 13 17 24 19 67 25 21 27 26 25 24 24 24 27 30 33 36 38 42 49 54 65 72 81 78 64 69 67 63 64 68 71 61 64 96
8 7 8 9 9 10 12 11 11 12 13 12 12 14 21 18 26 26 25 25 23 23 24 27 28 31 33 36 41 48 60 71 71 75 67 72 67 60 62 61 78 84 80 93
5 5 6 7 7 8 9 11 12 12 12 14 9 13 70 17 18 20 21 23 24 23 22 25 25 27 30 32 36 41 56 69 72 69 60 78 70 63 62 59 72 75 77 80
4 5 5 5 7 7 9 11 16 17 15 14 9 12 39 48 12 10 15 20 23 24 22 22 24 24 27 30 34 38 54 73 58 72 63 82 81 66 75 74 67 69 72 68
5 5 4 4 5 7 10 10 13 18 13 10 9 13 18 41 8 8 9 13 20 23 23 22 23 23 25 29 33 38 55 73 67 65 55 70 78 77 75 69 64 85 72 68
6 6 3 3 4 4 6 11 8 9 8 10 15 9 8 8 7 9 10 10 18 22 23 22 23 23 25 29 33 40 55 70 49 54 47 76 73 69 66 64 70 63 66 79
5 7 4 3 3 3 4 4 10 10 15 17 10 9 8 9 7 5 9 11 14 20 24 23 22 22 24 28 34 40 56 58 56 66 75 79 84 65 79 74 78 68 75 91
4 5 6 5 4 4 5 5 6 8 8 11 12 10 5 6 5 4 5 10 11 17 23 23 23 23 23 27 32 40 54 62 65 61 69 72 74 78 81 78 83 86 83 85
5 5 7 6 4 3 3 4 4 8 12 9 10 11 5 4 4 4 3 5 12 16 21 22 23 22 22 27 31 37 47 53 59 56 62 71 76 71 72 75 75 78 83 88
6 7 8 7 5 4 4 3 3 3 4 8 10 8 4 4 4 4 3 6 11 17 20 21 22 20 20 26 32 40 49 49 48 44 58 64 74 74 69 75 77 75 82 90
10 7 7 8 8 5 5 4 4 4 4 5 6 6 5 4 4 4 4 6 10 20 20 20 20 19 20 26 39 46 53 42 38 42 55 60 63 73 76 76 78 79 86 93
9 9 8 7 6 5 4 4 4 5 4 5 4 5 4 4 4 6 7 9 12 21 20 20 18 19 21 30 44 45 42 38 42 31 52 60 58 51 60 76 81 86 92 94
8 10 8 9 6 5 4 4 4 4 4 4 4 5 4 4 4 6 8 6 11 22 20 19 19 20 23 32 43 47 41 49 36 33 40 62 62 49 51 71 68 86 90 94
9 8 9 12 8 6 7 4 4 4 4 4 6 5 4 5 8 8 9 10 11 22 21 22 23 23 28 32 48 55 42 38 38 40 46 52 51 48 51 64 64 89 96 94
10 9 9 11 10 13 6 5 5 5 5 5 5 4 5 8 11 10 10 11 13 15 23 26 26 24 30 36 51 67 64 42 42 45 57 72 75 53 57 65 66 84 87 91
9 11 11 14 14 10 7 7 7 7 8 6 6 4 8 12 13 15 23 14 14 16 24 27 26 26 28 38 48 69 79 65 54 57 64 77 60 51 43 83 88 90 90 92
10 10 13 14 15 18 9 7 8 8 11 15 15 16 17 18 16 29 36 34 22 18 24 27 27 26 29 42 54 71 80 84 64 53 43 42 40 52 55 90 85 88 91 86
15 16 16 15 19 12 16 12 10 15 23 23 24 25 25 23 26 30 42 48 36 25 25 28 28 27 32 43 57 73 70 67 49 36 33 35 34 44 88 87 88 88 86 86
19 19 16 15 17 22 14 13 14 28 28 29 31 34 31 30 28 34 51 54 50 34 31 35 32 30 37 47 59 67 64 54 42 39 44 34 43 92 88 89 89 91 87 84
17 15 15 12 13 22 18 23 25 23 28 31 36 36 34 30 28 34 47 54 48 42 37 38 37 35 40 49 65 62 56 50 59 66 80 66 86 90 95 97 90 93 90 89
15 15 14 13 21 23 27 30 30 30 29 28 30 34 37 31 31 37 47 53 50 44 40 40 42 42 46 58 66 63 67 60 72 84 90 96 92 96 97 96 93 82 78 74
20 18 19 25 28 26 28 27 29 30 30 29 29 31 36 34 33 38 46 53 56 53 46 48 48 49 53 62 65 81 90 92 88 96 97 97 96 90 88 77 78 62 63 60
26 19 17 17 23 24 29 27 31 31 31 32 32 31 33 38 35 42 45 57 63 64 65 63 61 62 61 69 81 90 90 90 89 97 89 90 91 84 84 75 66 63 60 60
Wind_Speed
20 13 15 18 9 20 11 1 3 6 11 12 12 12 15 20 21 20 22 22 24 24 23 22 22 21 20 19 18 18 16 16 15 13 10 10 10 9 7 6 8 4 6 5
15 16 18 7 6 4 8 9 10 9 6 9 11 13 18 18 21 23 23 23 24 25 26 26 24 23 22 21 20 18 17 15 16 12 12 10 9 13 11 9 8 7 7 6
21 18 20 4 9 11 12 15 3 2 8 14 10 12 13 19 20 21 22 23 24 26 28 29 28 26 24 23 22 20 19 18 16 12 12 12 10 5 9 8 6 5 7 6
15 25 6 10 13 13 18 9 3 6 11 7 13 5 26 19 19 19 23 24 25 27 28 29 29 28 26 24 22 21 20 19 16 15 12 13 11 10 10 8 9 6 6 7
18 18 13 15 17 15 16 2 6 6 13 18 12 8 14 16 18 17 23 26 26 28 29 30 29 28 26 24 23 21 21 20 18 16 15 13 13 10 8 8 5 8 7 7
21 15 18 17 17 14 12 6 11 14 13 13 15 10 8 12 14 17 21 25 28 27 28 29 28 27 25 24 23 22 22 23 21 19 19 16 14 12 10 11 12 9 10 8
19 23 14 15 16 11 15 13 11 12 12 13 2 2 13 16 5 7 17 24 28 28 28 30 29 28 26 26 24 22 24 24 23 21 20 17 14 16 13 12 10 8 12 12
14 17 24 15 19 18 20 18 14 12 13 13 13 5 9 34 10 8 7 16 24 30 30 30 28 27 27 26 24 23 23 23 22 22 21 20 17 14 15 16 13 6 8 13
8 15 8 22 16 19 21 18 22 24 19 16 17 10 13 14 6 10 12 8 20 30 31 30 29 29 28 26 24 24 24 22 22 22 22 21 19 17 14 14 12 10 6 11
9 9 14 11 16 19 20 15 16 16 17 15 10 11 3 7 2 7 11 7 18 24 31 31 30 29 27 25 25 26 25 24 23 21 20 19 18 19 15 13 13 12 4 9
18 9 10 9 18 18 13 17 13 17 16 15 13 8 4 9 3 4 2 7 11 22 31 31 29 28 27 27 27 27 25 22 21 20 19 19 18 17 16 14 12 11 5 4
17 11 10 14 15 19 21 20 21 14 17 15 12 6 6 3 3 2 4 4 11 19 29 31 29 28 30 30 29 29 26 23 26 26 23 20 19 18 16 16 12 11 9 6
12 10 11 13 12 8 14 24 19 21 19 20 16 11 10 6 4 7 7 8 8 18 28 30 29 30 31 30 30 30 29 28 28 28 24 22 20 19 18 17 15 13 11 9
8 13 15 10 11 14 18 19 19 18 15 19 19 19 4 6 10 10 6 9 11 20 29 31 30 31 30 31 31 34 35 34 30 27 24 25 24 21 18 17 16 15 13 12
12 16 16 12 8 8 14 17 20 21 19 17 12 11 11 3 3 13 8 6 12 21 30 32 31 31 32 32 35 39 38 35 33 27 27 28 25 23 21 19 18 17 16 13
16 16 15 11 6 7 11 17 19 18 19 16 17 17 13 10 5 8 11 11 16 24 31 32 30 31 35 33 36 39 40 38 40 28 29 26 26 24 24 23 21 20 16 13
17 14 16 12 15 10 12 13 15 11 11 14 15 13 16 7 7 7 6 12 19 26 31 32 34 32 34 35 36 38 39 37 41 34 24 25 27 25 24 23 22 19 17 14
19 15 13 11 15 14 11 14 14 14 13 13 14 15 10 4 8 13 8 10 17 24 31 32 33 32 30 31 31 31 32 35 38 33 26 24 25 23 21 20 23 20 18 17
18 13 12 13 10 10 17 7 8 11 13 15 18 13 6 9 15 3 2 5 12 23 30 31 32 31 29 29 31 28 25 30 33 30 27 27 26 24 21 20 21 21 19 18
22 17 13 11 14 17 14 10 10 0 7 8 8 7 7 12 11 9 3 1 6 16 24 27 27 26 28 28 27 28 27 27 31 31 29 27 26 24 21 23 23 21 19 18
14 17 16 14 10 15 18 7 7 10 4 6 6 5 7 7 8 6 6 1 6 11 17 21 24 26 27 28 31 32 30 31 33 31 29 29 28 24 22 23 23 22 18 18
18 17 15 13 18 16 15 14 10 7 10 4 4 5 7 8 8 4 2 1 6 11 15 19 22 25 27 32 36 30 31 33 34 33 33 31 28 25 24 23 22 21 22 23
19 14 16 15 11 12 4 14 11 6 8 3 1 4 6 8 6 4 1 3 5 10 13 16 19 22 25 30 31 33 36 34 34 34 33 33 30 28 26 27 23 22 24 18
14 4 11 13 11 8 11 11 10 7 6 2 2 4 6 6 5 5 2 3 5 8 12 15 17 19 22 25 23 23 28 33 33 32 31 30 31 30 27 22 22 17 17 15
8 15 13 7 8 9 8 8 7 4 3 2 2 3 5 5 4 5 4 4 5 7 10 12 14 16 18 21 20 20 20 22 24 26 28 30 29 26 27 28 25 23 24 20
8 8 12 9 20 10 13 7 3 2 3 3 3 4 5 6 4 5 5 6 6 6 8 10 12 14 18 22 21 20 23 22 24 27 30 28 28 28 32 32 31 25 25 24
Wind_Direction
204 221 224 215 217 163 228 286 191 120 127 198 211 223 173 184 199 191 195 192 194 195 191 187 186 184 183 185 186 187 188 192 191 194 197 199 205 206 206 197 216 223 224 216
207 232 238 256 65 247 235 234 187 123 160 219 217 221 165 187 201 200 199 193 198 196 191 192 191 188 187 186 188 189 190 194 192 197 198 203 204 206 214 185 235 210 222 211
233 207 241 200 193 244 240 251 179 37 168 222 227 228 204 181 199 207 206 200 198 199 199 195 194 194 193 192 192 193 193 198 195 196 199 201 200 199 213 218 220 207 218 196
218 252 220 209 236 220 251 221 99 242 246 241 239 113 235 182 188 201 206 206 199 199 201 197 196 198 198 197 196 197 197 196 199 196 198 198 192 197 201 203 206 206 204 203
226 234 215 239 232 229 265 235 250 247 262 267 217 261 132 171 178 198 209 207 207 196 199 202 199 198 202 199 199 199 199 200 197 199 186 205 194 208 204 212 190 195 229 190
253 223 232 232 240 248 278 237 246 251 252 267 255 214 165 198 171 187 194 211 207 201 199 200 202 197 201 200 200 200 199 202 198 205 198 199 210 197 209 207 214 206 203 190
219 241 219 247 254 194 235 235 235 221 224 242 201 258 134 312 191 117 175 191 204 205 196 198 201 199 196 199 199 199 196 199 202 203 204 205 201 200 218 209 212 226 198 201
214 211 221 203 232 232 210 236 247 235 242 241 142 200 156 193 152 128 115 174 193 198 197 196 199 198 193 196 197 198 195 196 196 201 205 207 206 207 214 231 214 251 234 198
238 230 207 210 211 236 241 216 247 269 279 283 202 179 149 209 144 160 137 168 179 193 198 194 194 196 193 195 197 197 194 193 197 202 206 207 210 199 215 228 246 233 258 227
250 272 200 189 217 225 242 249 223 251 272 273 270 232 204 143 51 2 114 162 173 191 194 194 193 194 192 194 195 193 191 193 195 195 199 203 205 208 205 221 227 235 264 104
245 238 147 221 207 217 205 244 254 260 221 257 264 256 212 109 135 272 125 206 172 181 189 193 194 192 190 190 188 187 190 191 192 190 197 198 203 208 210 216 228 235 215 224
219 251 224 203 212 218 243 216 232 241 249 262 267 250 92 122 130 275 308 173 169 180 184 190 191 189 190 190 191 190 192 191 192 188 199 198 198 201 209 212 220 229 226 208
216 230 252 238 155 212 231 235 227 235 246 243 258 250 253 243 129 289 277 123 181 182 181 188 188 187 193 188 188 187 189 192 199 208 195 193 197 201 203 213 210 217 223 225
297 245 241 250 233 203 197 230 241 249 234 234 241 259 269 265 295 289 223 182 178 188 182 188 188 189 193 187 184 184 189 196 196 203 200 200 198 199 199 204 212 207 211 215
232 248 258 285 284 294 209 204 226 238 256 271 252 246 272 281 323 354 70 160 165 187 183 190 193 189 191 184 190 199 198 195 197 205 189 205 206 208 207 206 206 212 212 211
222 253 277 290 235 247 256 211 213 221 234 256 275 285 303 317 304 295 297 210 197 191 191 193 198 187 187 191 199 206 203 197 200 203 197 201 212 215 207 207 213 210 210 200
226 234 249 243 240 218 241 222 234 223 216 241 254 250 252 249 2 312 254 211 200 190 199 194 197 195 196 198 202 208 209 205 205 209 205 210 211 206 207 210 207 206 202 191
219 220 246 241 231 218 245 216 208 220 224 243 239 264 292 20 295 272 220 217 207 200 199 196 199 202 201 202 204 202 206 205 204 210 204 205 199 197 203 208 204 199 199 186
258 234 233 249 220 216 235 152 211 228 248 259 260 245 14 329 306 151 289 251 231 203 200 200 200 202 198 198 199 197 193 195 202 204 200 198 201 199 205 202 196 194 186 184
251 244 251 254 239 250 224 189 105 76 242 56 16 8 349 316 286 72 27 232 212 191 196 196 197 197 194 195 192 187 187 187 194 195 199 200 198 204 212 190 194 191 186 184
225 251 241 235 254 250 84 16 164 214 81 57 32 7 325 307 353 252 300 337 191 195 188 190 191 192 188 186 186 185 185 190 193 195 197 197 197 206 193 193 188 183 174 179
204 223 239 248 249 239 144 175 220 95 104 68 32 351 319 304 290 237 295 216 184 182 182 184 186 185 183 184 186 180 185 189 192 194 192 191 192 176 188 187 185 178 178 181
218 215 221 235 245 118 128 85 102 95 110 113 88 347 324 306 280 218 92 145 167 169 177 177 179 179 181 184 188 184 185 187 179 182 182 181 175 169 180 178 176 172 185 176
207 246 250 221 121 123 110 110 101 87 94 96 61 346 332 315 267 226 187 156 148 148 156 166 172 179 179 184 186 187 183 184 180 179 179 174 168 175 169 171 170 173 178 185
267 166 234 128 87 117 142 92 89 85 69 46 18 335 339 321 282 228 198 187 159 146 149 156 167 176 176 173 172 177 170 176 177 181 175 174 172 167 164 172 174 177 185 189
198 188 200 241 167 202 130 115 103 86 58 30 5 325 323 334 295 229 205 195 180 160 152 152 157 162 170 170 169 177 176 173 176 179 182 178 174 169 180 174 176 185 187 192